This is the latest recevied weather packets stored in our database for station/object KK6LZB. If no packets are shown the sender has not sent any weather packets the latest 10 day(s).
| Time | Temp. | Humidity | Pressure | Rain* | Wind** | Luminosity | Snow |
|---|---|---|---|---|---|---|---|
| 1778162120 | 12.78° C | 99% | 1018.2 hPa | 0 mm | - | 35 W/m² | - |
| 1778161818 | 12.78° C | 99% | 1018.2 hPa | 0 mm | - | 21 W/m² | - |
| 1778161514 | 11.67° C | 99% | 1018.1 hPa | 0 mm | - | 19 W/m² | - |
| 1778161210 | 11.11° C | 99% | 1018.2 hPa | 0 mm | - | 17 W/m² | - |
| 1778160906 | 11.11° C | 99% | 1018 hPa | 0 mm | - | 15 W/m² | - |
| 1778160605 | 11.11° C | 99% | 1017.9 hPa | 0 mm | - | 13 W/m² | - |
| 1778160301 | 11.11° C | 99% | 1017.8 hPa | 0 mm | - | 12 W/m² | - |
| 1778159997 | 11.11° C | 99% | 1017.9 hPa | 0 mm | - | 10 W/m² | - |
| 1778159694 | 11.11° C | 99% | 1017.8 hPa | 0 mm | - | 8 W/m² | - |
| 1778159391 | 11.11° C | 99% | 1017.8 hPa | 0 mm | - | 6 W/m² | - |
| 1778159088 | 10.56° C | 98% | 1017.8 hPa | 0 mm | - | 4 W/m² | - |
| 1778158787 | 10.56° C | 98% | 1018 hPa | 0 mm | - | 2 W/m² | - |
| 1778158484 | 10.56° C | 98% | 1017.8 hPa | 0 mm | - | 1 W/m² | - |
| 1778158181 | 10.56° C | 98% | 1017.9 hPa | 0 mm | - | 1 W/m² | - |
| 1778157878 | 11.11° C | 98% | 1017.9 hPa | 0 mm | - | 0 W/m² | - |
| 1778157576 | 11.11° C | 98% | 1017.8 hPa | 0 mm | - | 0 W/m² | - |
| 1778157273 | 11.11° C | 98% | 1017.8 hPa | 0 mm | - | 0 W/m² | - |
| 1778156969 | 11.11° C | 98% | 1017.7 hPa | 0 mm | - | 0 W/m² | - |
| 1778156665 | 11.11° C | 98% | 1017.9 hPa | 0 mm | - | 0 W/m² | - |
| 1778156361 | 11.11° C | 98% | 1017.7 hPa | 0 mm | - | 0 W/m² | - |
| 1778156056 | 11.11° C | 97% | 1017.7 hPa | 0 mm | - | 0 W/m² | - |
| 1778155753 | 11.11° C | 97% | 1017.7 hPa | 0 mm | - | 0 W/m² | - |
| 1778155450 | 11.11° C | 97% | 1017.8 hPa | 0 mm | - | 0 W/m² | - |
| 1778155146 | 11.67° C | 97% | 1017.6 hPa | 0 mm | - | 0 W/m² | - |
| 1778154842 | 11.67° C | 97% | 1017.7 hPa | 0 mm | - | 0 W/m² | - |
* Rain latest hour (hover to see other rain measurements)
** Current wind speed in m/s (hover to see current wind gust speed)